Dewpoint
47 44 39 40 42 41 38 39 38 40 44 44 43 44 43 44 41 35 31 32 26 35 51 54 56 58 58 56 60 59 59 59 59 59 59 58 58 58 58 59 59 59 59 58
44 39 41 41 41 42 42 39 38 40 44 44 42 42 44 44 44 44 43 37 32 29 27 37 54 56 59 57 57 59 59 59 60 59 59 59 59 59 59 59 59 59 59 58
40 40 41 41 41 40 39 40 39 38 41 44 44 40 42 43 44 44 43 41 39 35 33 29 39 54 56 58 57 57 59 59 59 60 60 58 58 57 59 59 59 58 58 58
41 41 40 40 40 40 36 40 40 39 39 36 43 33 36 38 41 43 43 42 38 35 34 34 31 39 53 55 58 57 58 58 59 60 60 59 58 58 58 59 60 60 58 58
38 41 39 39 39 44 40 43 42 41 40 39 37 36 35 38 37 39 41 42 40 37 37 36 35 32 42 53 55 58 57 58 59 59 59 59 58 59 58 59 59 59 59 59
37 42 41 41 41 41 43 42 42 41 40 33 35 36 31 34 34 37 39 40 41 40 40 39 39 36 32 46 55 56 57 57 58 59 59 58 58 58 58 57 57 58 59 59
38 38 43 42 39 42 43 39 31 29 29 29 32 34 32 35 32 32 33 33 34 36 35 36 37 33 31 43 51 55 56 56 57 58 58 58 58 58 57 57 57 57 58 58
33 30 39 43 38 36 39 38 32 25 26 27 32 32 33 36 37 37 35 35 36 31 32 34 35 35 34 38 47 53 55 56 57 58 58 59 59 58 58 58 58 58 58 58
33 32 39 42 42 40 40 37 38 32 26 27 28 27 29 29 29 28 28 30 33 34 33 29 32 36 34 38 46 51 54 55 56 57 58 58 59 58 58 58 58 58 58 58
38 34 39 40 40 42 41 40 34 33 26 21 25 25 26 27 25 28 30 29 28 29 31 32 27 30 35 36 45 50 53 55 56 57 57 58 58 58 58 58 57 58 58 57
39 36 35 39 38 36 37 37 36 35 32 25 21 20 24 25 27 25 22 23 25 26 26 28 30 25 29 35 45 49 52 53 55 56 57 57 57 58 58 58 58 58 58 57
41 35 32 34 37 39 38 34 36 31 27 27 24 23 23 23 23 22 18 14 17 21 23 23 23 22 24 29 39 46 50 52 54 55 56 57 57 57 57 58 58 58 58 58
40 33 29 31 35 37 37 37 36 34 31 27 25 25 27 22 19 16 15 16 19 16 18 20 22 22 24 27 31 41 47 50 50 51 53 53 54 55 57 58 58 58 58 58
40 35 32 26 29 35 35 36 38 36 33 30 29 28 28 26 26 30 23 13 12 16 15 19 23 26 27 29 31 32 37 45 47 48 51 52 53 54 55 55 55 56 58 59
40 32 35 34 32 31 32 35 36 36 36 33 32 30 30 30 29 31 23 14 12 14 16 17 21 27 30 32 34 35 35 36 39 43 44 45 44 45 46 47 49 51 53 55
38 31 32 31 35 35 33 32 35 36 36 36 35 35 36 37 37 34 28 18 14 13 15 18 20 24 30 32 34 36 37 38 39 37 37 38 39 40 40 41 42 43 46 49
34 32 31 26 31 32 29 32 32 33 35 36 35 35 36 35 36 33 33 29 20 15 15 17 18 23 27 31 33 35 38 40 40 40 39 39 40 40 41 42 42 43 44 44
32 30 32 27 26 22 24 31 34 31 32 35 36 36 36 36 36 35 28 26 24 20 18 17 19 22 26 30 33 35 38 40 40 40 39 39 38 38 38 39 39 39 39 41
34 31 26 17 21 21 24 27 31 30 30 32 35 36 37 37 36 35 33 30 28 27 25 22 21 23 22 25 28 34 36 37 38 38 37 37 37 36 36 36 36 33 35 34
32 33 24 21 21 10 21 26 31 30 27 30 32 32 32 33 31 32 34 34 33 30 24 24 24 24 25 29 32 32 33 34 35 35 35 36 33 35 35 36 35 33 34 34
24 28 26 24 22 18 24 28 31 23 19 26 30 31 31 32 33 32 33 33 33 34 27 27 29 28 28 29 30 31 32 32 32 33 33 32 34 34 37 36 34 34 35 35
18 17 16 22 18 13 26 28 26 27 28 25 26 25 28 32 33 34 34 33 31 29 29 29 29 29 29 29 30 30 30 31 32 33 33 33 33 33 33 35 33 34 35 34
21 24 21 22 20 23 28 28 29 29 29 29 29 29 28 27 28 30 30 30 30 29 29 28 28 27 28 28 29 29 30 31 31 32 33 33 33 33 33 34 34 33 33 34
27 29 27 29 28 27 28 27 24 26 26 29 28 29 28 28 28 28 29 29 29 28 27 27 27 26 26 26 28 29 30 30 32 33 33 33 33 33 33 33 33 34 33 33
26 28 25 27 27 26 27 21 20 23 24 25 25 26 28 28 29 28 28 27 26 26 26 26 25 24 23 24 24 25 28 31 32 32 31 32 33 33 32 33 33 33 32 34
24 25 25 23 18 21 21 21 19 20 21 22 24 24 25 26 27 26 25 24 24 23 23 22 21 21 20 21 21 23 26 31 31 30 30 31 31 31 32 32 31 34 34 35
Lifted_Index
3 4 4 4 3 2 2 2 2 3 3 3 4 4 4 4 3 3 3 4 4 4 4 3 3 2 2 3 3 3 3 3 3 3 4 4 4 4 4 4 4 5 4 3
3 4 4 4 3 2 2 2 2 2 2 3 4 4 4 4 4 3 3 3 4 3 3 3 3 3 2 2 3 3 3 3 3 3 3 4 4 4 4 3 4 4 3 3
3 3 3 3 3 3 2 2 2 2 2 2 3 4 4 4 4 4 3 3 3 3 3 3 3 3 3 3 3 3 3 3 3 3 3 3 4 4 3 3 3 3 3 3
3 3 3 3 3 2 2 2 1 1 2 2 3 4 4 4 4 4 3 3 3 3 2 2 2 3 3 3 3 4 4 4 4 4 3 3 4 4 3 3 3 3 3 3
3 3 3 3 3 2 1 1 1 1 1 2 3 4 4 4 4 3 3 3 3 2 2 2 2 2 3 3 4 4 4 5 5 4 4 4 4 4 4 4 3 3 3 3
3 3 3 3 3 2 1 1 0 0 0 2 3 4 4 4 4 3 3 3 3 2 2 2 2 3 3 4 4 5 5 5 5 5 4 4 4 4 4 3 3 3 3 3
3 3 4 4 3 2 1 1 0 0 0 1 3 4 5 5 4 3 3 3 3 3 2 3 3 4 4 4 4 5 5 5 5 5 5 4 4 4 3 3 3 4 4 4
3 3 4 4 3 2 1 1 0 0 0 1 2 4 5 6 5 4 3 3 3 2 3 3 4 4 4 4 5 4 4 4 5 5 5 5 4 4 4 3 3 4 4 4
2 2 3 3 2 2 1 1 1 0 0 1 2 4 6 6 5 5 4 3 3 3 3 4 5 5 5 6 6 5 4 4 5 5 5 5 5 4 4 4 3 4 4 3
1 2 3 2 2 1 1 1 1 1 0 1 2 4 5 6 5 5 4 4 3 3 4 4 5 5 6 6 6 6 5 5 5 5 6 5 5 4 4 4 3 3 3 3
1 1 2 2 1 1 1 1 1 1 1 1 2 3 5 6 5 5 5 5 4 5 5 5 5 5 6 7 7 7 6 6 5 5 5 5 5 4 4 4 3 3 3 3
1 1 1 1 1 1 1 1 1 1 1 2 2 3 5 5 5 5 5 5 5 5 6 6 5 6 6 7 7 7 7 7 6 6 5 5 5 4 4 4 3 3 3 3
1 1 1 1 1 1 1 1 1 1 1 2 2 3 4 4 4 4 4 4 4 5 6 6 6 7 7 7 8 8 9 8 7 6 6 5 5 4 4 3 3 3 3 3
1 1 1 1 0 1 1 1 0 0 1 1 2 3 4 4 3 3 3 3 4 5 6 7 7 8 8 8 8 8 9 9 8 7 6 6 5 5 4 4 3 3 3 3
1 1 1 1 0 0 0 0 1 1 1 1 2 3 3 3 3 2 2 2 3 4 6 7 7 8 8 9 9 9 9 10 9 9 8 7 7 6 6 6 5 5 5 5
1 1 1 1 1 1 0 1 1 1 1 2 2 3 3 3 3 2 2 2 2 3 5 6 7 8 8 9 9 10 10 10 10 10 10 10 10 9 9 9 9 9 9 8
1 1 1 1 1 1 1 2 2 2 2 2 2 3 3 2 3 3 2 2 2 3 4 6 7 8 8 9 10 10 10 10 10 10 11 11 11 11 11 11 11 11 10 10
1 1 2 2 2 2 2 3 2 2 2 2 3 3 3 3 2 3 3 3 3 3 4 5 7 8 8 9 9 9 10 10 10 10 10 10 11 11 11 11 11 11 10 10
2 2 2 2 2 3 3 3 2 2 2 3 3 3 3 3 3 3 3 2 3 3 4 4 6 7 8 8 8 9 9 8 8 8 9 9 10 10 10 10 11 11 10 10
3 2 2 2 2 3 4 4 2 2 2 3 3 3 3 3 3 3 2 2 3 3 4 4 5 6 8 8 8 8 8 8 8 8 8 9 9 9 9 10 10 10 10 10
3 2 2 2 2 3 5 4 3 2 3 3 3 3 3 2 3 3 3 2 3 3 4 4 4 6 7 7 8 8 8 8 9 9 9 9 9 9 10 10 10 10 10 10
3 3 2 2 2 3 4 4 3 3 3 3 3 3 3 3 3 3 3 3 3 4 4 4 4 5 6 7 7 7 8 9 9 10 10 10 10 10 10 10 10 10 10 10
3 3 3 2 3 3 3 2 2 2 3 3 3 3 3 3 3 3 4 4 4 4 4 4 4 4 5 6 6 7 8 9 9 9 9 10 10 10 9 9 10 10 10 10
3 3 3 3 3 3 2 2 2 2 2 3 3 3 3 3 3 4 4 4 4 4 4 4 4 4 4 5 6 6 7 8 8 8 8 9 9 9 9 10 10 10 10 10
3 3 3 3 3 3 2 2 2 2 2 2 3 3 3 3 3 4 4 5 5 5 5 5 5 5 5 5 6 6 7 7 7 7 7 8 8 8 9 9 10 10 11 11
4 3 3 3 3 3 3 2 2 2 2 2 2 2 2 3 3 3 4 4 5 5 5 5 5 5 5 6 6 7 7 7 7 7 7 7 7 8 8 8 9 10 11 11